[[{"header":{"parameterUnit":"m.s-1","parameterCategory":1,"la1":30.2991,"la2":30.254,"lo1":-89.0895,"lo2":-89.0444,"dy":0.0017,"dx":0.0017,"nx":28,"ny":28,"refTime":"2025-05-16T03:00:00:Z","depth":0,"parameterNumber":2,"parameterNumberName":"U-component_of_WINDS"},"data":[0,0,0,0,0,0,0,0,0,0,0,0,0,0,0,0,0,0,0,0,0,0,0,0,0,0,0,0,0,0,0,0,0,0,0,0,0,0,0,0,0,0,0,0,0,0,0,0,0,0,0,0,0,0,0,0,0,0,0.7226,0.7226,0,0.7273,0.7273,0.7274,0.7272,0.7272,0.7271,0.7271,0.7322,0.7324,0.7326,0,0,0,0,0,0,0,0,0,0,0,0,0,0.7137,0.7139,0.7226,0.7226,0.7227,0.7273,0.7273,0.7274,0.7273,0.7272,0.7271,0.727,0.7321,0.7324,0.7326,0,0,0,0,0,0,0,0,0,0,0,0,0,0.7179,0.7139,0.7226,0.7232,0.7233,0.7272,0.7273,0.7274,0.7273,0.7272,0.7271,0.727,0.732,0.7323,0.7326,0.7364,0,0,0.7335,0.7337,0,0,0,0,0,0,0,0,0.7177,0.7182,0.723,0.7231,0.7233,0.7266,0.7261,0.7304,0.7273,0.7258,0.7271,0.7269,0.7304,0.7308,0.7319,0.7367,0.7369,0.7336,0.7337,0.7339,0.7339,0,0,0,0,0,0,0,0.7174,0.718,0.7244,0.7231,0.7232,0.7233,0.7238,0.7269,0.7286,0.7259,0.7259,0.7264,0.7305,0.7317,0.7321,0.7369,0.7335,0.7338,0.734,0.7341,0.7449,0.745,0,0,0,0,0,0,0.7169,0.7178,0.7243,0.7246,0.7202,0.7235,0.7241,0.7256,0.7286,0.7289,0.7265,0.7264,0.7312,0.7317,0.7322,0.7368,0.7339,0.7341,0.7343,0.7448,0.7449,0.745,0,0,0,0,0,0,0.7167,0.7175,0.7241,0.7212,0.722,0.7238,0.7255,0.7258,0.7269,0.729,0.7293,0.7274,0.7311,0.7318,0.7353,0.737,0.7343,0.7345,0.7446,0.7448,0.745,0.746,0,0,0,0,0,0,0.7165,0.7175,0.7189,0.7212,0.7222,0.7271,0.7256,0.7259,0.7274,0.7273,0.7299,0.7303,0.7311,0.7349,0.7356,0.7373,0.7348,0.7445,0.7447,0.7449,0.7458,0.7462,0.7465,0,0,0,0,0,0.7162,0.7191,0.7189,0.7197,0.724,0.7271,0.7277,0.7285,0.7275,0.729,0.7303,0.7302,0.7367,0.7352,0.7361,0.7379,0.7444,0.7447,0.7449,0.7457,0.7461,0.7464,0,0,0,0,0,0,0.717,0.7194,0.7193,0.723,0.7249,0.7271,0.729,0.729,0.7312,0.7311,0.732,0.7326,0.7361,0.7374,0.7357,0.7417,0.7404,0.7408,0.7407,0.7411,0.7415,0.7411,0.735,0,0,0,0,0,0.7176,0.7199,0.7219,0.725,0.7259,0.7273,0.7287,0.7291,0.7311,0.732,0.7335,0.7356,0.738,0.7397,0.7421,0.746,0.7465,0.7476,0.7479,0.7482,0.7486,0.7506,0.7511,0.7458,0.7458,0.7458,0,0,0.7189,0.7205,0.7219,0.7252,0.7267,0.7291,0.728,0.7306,0.7324,0.7324,0.7357,0.7369,0.7393,0.743,0.7447,0.7441,0.7501,0.7485,0.7487,0.7489,0.7509,0.7514,0.7519,0.746,0.746,0.7459,0,0,0.7225,0.7239,0.7266,0.7281,0.7303,0.7311,0.7318,0.734,0.7348,0.7381,0.7381,0.7403,0.7446,0.7462,0.7476,0.7516,0.7516,0.7524,0.7541,0.7561,0.7565,0.7569,0.7583,0.7588,0.7527,0.7527,0.7527,0,0.7239,0.7274,0.7281,0.7306,0.732,0.732,0.7347,0.7361,0.7391,0.7401,0.7394,0.7446,0.7462,0.7502,0.7511,0.7523,0.7531,0.7521,0.7564,0.7568,0.7571,0.7585,0.759,0.7528,0.7528,0.7528,0.7528,0,0.729,0.7314,0.7333,0.736,0.7376,0.7403,0.7413,0.7429,0.7432,0.7441,0.7475,0.7493,0.752,0.753,0.7534,0.7571,0.7566,0.7561,0.7549,0.7577,0.759,0.7595,0.7529,0.7529,0.7529,0.7528,0,0,0.7334,0.7362,0.7369,0.738,0.7404,0.7423,0.7449,0.7474,0.7487,0.7507,0.753,0.7565,0.756,0.7575,0.7581,0.7598,0.7628,0.7591,0.7592,0.7597,0.7669,0.7673,0.7678,0.7627,0.7628,0.7629,0.7667,0,0.7372,0.7417,0.7423,0.7464,0.7486,0.7485,0.7508,0.7525,0.7534,0.7555,0.7565,0.759,0.7582,0.7591,0.7608,0.7621,0.7643,0.7618,0.7649,0.765,0.7643,0.7685,0.7689,0.7724,0.7672,0.7673,0.7674,0,0.7423,0.7442,0.7485,0.7503,0.7513,0.7533,0.7556,0.7576,0.7595,0.7601,0.7617,0.7619,0.7647,0.7633,0.7671,0.7654,0.7667,0.7674,0.7676,0.7679,0.7664,0.769,0.7736,0.7741,0.7682,0.7681,0.768,0,0.745,0.7487,0.7517,0.7527,0.755,0.7564,0.7574,0.7592,0.7606,0.7627,0.7636,0.766,0.7673,0.7691,0.77,0.7689,0.7737,0.7724,0.7743,0.7742,0.7753,0.7752,0.7802,0.7761,0.7761,0.7761,0.7761,0,0.7492,0.7518,0.7529,0.7547,0.7576,0.7582,0.7611,0.7621,0.7637,0.7657,0.7658,0.7678,0.7688,0.7709,0.7716,0.7746,0.7752,0.7758,0.7759,0.7757,0.7757,0.7766,0.7764,0.7763,0.7762,0.7762,0.7762,0,0.7528,0.7536,0.7568,0.7587,0.7592,0.7612,0.7628,0.7646,0.7655,0.7681,0.7687,0.7701,0.7725,0.7735,0.7766,0.7771,0.7805,0.7805,0.7798,0.7799,0.7817,0.7815,0.7874,0.7882,0.7836,0.7837,0.7837,0,0.7554,0.7574,0.7594,0.7607,0.7617,0.7639,0.7652,0.7659,0.7674,0.7696,0.7711,0.7736,0.7755,0.7795,0.7808,0.7831,0.7832,0.7851,0.7835,0.7833,0.7832,0.783,0.7832,0.7854,0.7854,0.7855,0.7855,0,0.76,0.7602,0.7622,0.7643,0.7659,0.7676,0.7693,0.7704,0.7713,0.7729,0.7754,0.7769,0.7799,0.7823,0.7847,0.7858,0.7858,0.7859,0.7865,0.7864,0.7859,0.7861,0.7806,0.7858,0.7858,0.7858,0.7857,0.7857,0.7632,0.7648,0.7664,0.7686,0.7699,0.7714,0.7731,0.7741,0.7761,0.7785,0.7788,0.7814,0.7832,0.7863,0.7876,0.7896,0.7892,0.79,0.7902,0.7904,0.7905,0.7855,0.7901,0.7901,0.7901,0.7901,0.7901,0,0.7677,0.7687,0.7706,0.7729,0.7745,0.7742,0.776,0.7775,0.7797,0.7813,0.7832,0.7859,0.7882,0.7896,0.792,0.7934,0.7934,0.7939,0.7939,0.7941,0.7908,0.79,0.7939,0.7939,0.7939,0.7938,0.7938,0.7938,0.7703,0.7731,0.7735,0.7769,0.7779,0.7803,0.7814,0.7828,0.784,0.7871,0.7889,0.7898,0.7913,0.7937,0.7958,0.7961,0.797,0.7975,0.7979,0.7948,0.7944,0.794,0.7933,0.7977,0.7977,0.801,0.8011,0.8011]},{"header":{"parameterUnit":"m.s-1","parameterCategory":1,"la1":30.2991,"la2":30.254,"lo1":-89.0895,"lo2":-89.0444,"dy":0.0017,"dx":0.0017,"nx":28,"ny":28,"refTime":"2025-05-16T03:00:00:Z","depth":0,"parameterNumber":3,"parameterNumberName":"V-component_of_WINDS"},"data":[0,0,0,0,0,0,0,0,0,0,0,0,0,0,0,0,0,0,0,0,0,0,0,0,0,0,0,0,0,0,0,0,0,0,0,0,0,0,0,0,0,0,0,0,0,0,0,0,0,0,0,0,0,0,0,0,0,0,4.6101,4.6102,0,4.6152,4.6152,4.6153,4.6122,4.6121,4.612,4.6118,4.6165,4.6168,4.617,0,0,0,0,0,0,0,0,0,0,0,0,0,4.5974,4.5977,4.6101,4.6102,4.6102,4.6152,4.6152,4.6153,4.6123,4.6121,4.6119,4.6118,4.6164,4.6167,4.6171,0,0,0,0,0,0,0,0,0,0,0,0,0,4.6027,4.5978,4.6101,4.6093,4.6093,4.6152,4.6152,4.6153,4.6123,4.6121,4.6119,4.6117,4.6163,4.6167,4.6171,4.6238,0,0,4.6183,4.6185,0,0,0,0,0,0,0,0,4.6024,4.6032,4.6094,4.6094,4.6094,4.6129,4.6125,4.6182,4.6124,4.6112,4.6118,4.6116,4.6155,4.6159,4.6173,4.6241,4.6243,4.6183,4.6186,4.6187,4.6188,0,0,0,0,0,0,0,4.6021,4.603,4.6121,4.6095,4.6095,4.6086,4.6091,4.6135,4.6144,4.6112,4.611,4.6117,4.6154,4.6169,4.6174,4.6243,4.6183,4.6187,4.6189,4.6191,4.637,4.6373,0,0,0,0,0,0,4.6018,4.6027,4.6119,4.6122,4.6053,4.609,4.6096,4.612,4.6144,4.6146,4.6119,4.6115,4.6164,4.6169,4.6176,4.6257,4.6187,4.6191,4.6193,4.6368,4.6371,4.6373,0,0,0,0,0,0,4.6016,4.6027,4.6117,4.6074,4.6085,4.6095,4.6121,4.6122,4.6137,4.6149,4.615,4.6133,4.6162,4.617,4.6224,4.6259,4.6193,4.6196,4.6365,4.6369,4.6372,4.6421,0,0,0,0,0,0,4.6012,4.6026,4.6052,4.6075,4.6088,4.6166,4.6124,4.6124,4.6144,4.6141,4.6162,4.6164,4.6161,4.6218,4.6228,4.6263,4.6199,4.6362,4.6367,4.6371,4.6416,4.6426,4.6434,0,0,0,0,0,4.6008,4.6063,4.6054,4.6065,4.6121,4.6168,4.6175,4.6172,4.6147,4.6174,4.6181,4.6163,4.6253,4.6224,4.6234,4.6271,4.636,4.6365,4.6371,4.6412,4.6424,4.6434,0,0,0,0,0,0,4.6041,4.6065,4.6056,4.612,4.6143,4.6163,4.6196,4.6184,4.6212,4.6207,4.6201,4.6206,4.6263,4.6272,4.6239,4.6338,4.6302,4.631,4.633,4.6342,4.635,4.6347,4.6203,0,0,0,0,0,4.6057,4.6094,4.6112,4.6167,4.6179,4.6186,4.6206,4.6202,4.6224,4.6233,4.6245,4.6266,4.6299,4.632,4.6351,4.6417,4.6422,4.6448,4.6457,4.6464,4.6471,4.6508,4.652,4.6391,4.6391,4.6391,0,0,4.6088,4.6106,4.6129,4.6174,4.6191,4.623,4.6194,4.6235,4.6263,4.6239,4.6291,4.63,4.6323,4.6384,4.6411,4.6394,4.6508,4.6471,4.6477,4.648,4.6515,4.6527,4.6538,4.6395,4.6395,4.6394,0,0,4.6164,4.6181,4.623,4.6249,4.6276,4.628,4.6292,4.6314,4.632,4.6373,4.6356,4.6389,4.6446,4.6463,4.648,4.6566,4.6551,4.6576,4.6622,4.6658,4.6668,4.6677,4.6709,4.6721,4.6583,4.6583,4.6583,0,4.6199,4.6258,4.6256,4.63,4.632,4.6302,4.6351,4.6369,4.6403,4.6418,4.6398,4.6471,4.6484,4.655,4.6571,4.6585,4.6598,4.6573,4.6667,4.6676,4.6685,4.6715,4.6727,4.6586,4.6585,4.6585,4.6585,0,4.63,4.6341,4.6376,4.6414,4.6438,4.6484,4.6489,4.6513,4.6508,4.6514,4.6569,4.6585,4.662,4.6635,4.6629,4.6701,4.6689,4.6668,4.6632,4.67,4.6728,4.674,4.659,4.6589,4.6588,4.6587,0,0,4.6398,4.6436,4.6449,4.6467,4.6496,4.6527,4.6572,4.6608,4.6631,4.6655,4.6693,4.6743,4.6725,4.6744,4.6739,4.6771,4.684,4.6747,4.6747,4.6765,4.6921,4.6937,4.6951,4.683,4.6832,4.6834,4.6919,0,4.6478,4.6559,4.656,4.6634,4.6672,4.6657,4.6696,4.6718,4.6726,4.6758,4.6765,4.6802,4.6774,4.6786,4.6817,4.6825,4.6871,4.6819,4.6865,4.6867,4.6861,4.6965,4.6982,4.7062,4.693,4.6932,4.6934,0,4.6581,4.6613,4.6692,4.6718,4.6734,4.677,4.6804,4.6836,4.686,4.6863,4.6886,4.6877,4.6923,4.6886,4.6949,4.6913,4.6932,4.6939,4.6942,4.6946,4.6905,4.6973,4.7087,4.7099,4.6951,4.6949,4.6948,0,4.6646,4.6708,4.6764,4.678,4.6811,4.6837,4.6851,4.6873,4.6896,4.6925,4.694,4.6973,4.6992,4.7018,4.7018,4.6991,4.7083,4.7045,4.7086,4.7087,4.7106,4.7105,4.7226,4.7117,4.7117,4.7117,4.7117,0,4.6736,4.6785,4.6795,4.6829,4.6884,4.6884,4.6938,4.6949,4.697,4.7006,4.6993,4.7027,4.7026,4.7059,4.706,4.7113,4.7121,4.7124,4.7124,4.7126,4.7126,4.7139,4.7134,4.712,4.7119,4.7119,4.7118,0,4.6818,4.6826,4.6887,4.6913,4.692,4.696,4.6981,4.7014,4.7021,4.7067,4.7077,4.7088,4.7127,4.7131,4.7175,4.7176,4.7241,4.7233,4.7233,4.7232,4.7274,4.7271,4.7407,4.7426,4.7305,4.7306,4.7307,0,4.6875,4.6913,4.6944,4.6968,4.6985,4.7023,4.7047,4.7048,4.7073,4.7106,4.7135,4.7174,4.7205,4.7269,4.728,4.7314,4.7309,4.7354,4.7314,4.7315,4.7311,4.7309,4.7313,4.7362,4.7364,4.7365,4.7366,0,4.6975,4.6978,4.7014,4.7052,4.7082,4.7111,4.7138,4.7158,4.7163,4.7192,4.7233,4.7258,4.7306,4.7345,4.7379,4.7392,4.738,4.7378,4.739,4.7393,4.7392,4.7394,4.7256,4.7375,4.7374,4.7374,4.7373,4.7373,4.7047,4.7081,4.7109,4.715,4.7171,4.7198,4.7231,4.7243,4.7279,4.7319,4.7317,4.7364,4.7388,4.7434,4.745,4.7485,4.747,4.7486,4.7491,4.7495,4.75,4.7386,4.7491,4.7491,4.7491,4.749,4.749,0,4.7148,4.7166,4.7203,4.7244,4.7276,4.7264,4.7294,4.7322,4.7363,4.7388,4.742,4.7469,4.7507,4.7522,4.7559,4.7585,4.7581,4.7595,4.7593,4.7597,4.7511,4.7498,4.7598,4.7598,4.7598,4.7598,4.7598,4.7598,4.7204,4.7262,4.7268,4.7337,4.7354,4.7401,4.742,4.7444,4.7464,4.752,4.7553,4.7563,4.7584,4.7623,4.7658,4.7661,4.7675,4.7693,4.7694,4.7613,4.7603,4.7592,4.758,4.7696,4.7696,4.7776,4.7777,4.7778]}]]